Regional Weather Roundup
Issued by NWS

Home | Current Version | Previous Version | Graphics & Text | Print | Product List | Glossary Off
Versions: 1 2 3 4 5 6 7 8 9 10 11 12 13 14 15 16 17 18 19 20 21 22 23 24 25 26 27 28 29 30 31 32 33 34 35 36 37 38 39 40 41 42 43 44 45 46 47 48 49 50

000
ASUS43 KFSD 222202
RWRSD

WEATHER ROUNDUP FOR SOUTH DAKOTA
NATIONAL WEATHER SERVICE SIOUX FALLS SD
500 PM CDT TUE APR 22 2014

NOTE: "FAIR" INDICATES FEW OR NO CLOUDS BELOW 12,000 FEET WITH NO
SIGNIFICANT WEATHER AND/OR OBSTRUCTIONS TO VISIBILITY.


SDZ001>005-009-010-012>017-222300-
NORTHWEST AND NORTH CENTRAL SOUTH DAKOTA

CITY           SKY/WX    TMP DP  RH WIND       PRES   REMARKS
MOBRIDGE       PTSUNNY   66  29  24 SE26G38   29.79F
$$

SDZ012>016-024>037-041>051-057-063-072>074-222300-
SOUTHWEST AND SOUTH CENTRAL SOUTH DAKOTA

CITY           SKY/WX    TMP DP  RH WIND       PRES   REMARKS
RAPID CTY ARPT CLOUDY    74  43  32 S17G25    29.62F
PIERRE         PTSUNNY   71  34  25 SE30G37   29.75F
CUSTER         CLOUDY    65  35  33 SW7       29.76F
ELLSWORTH AFB  CLOUDY    74  44  34 SE12      29.62F
PHILIP         CLOUDY    79  41  25 SE14      29.63F
PINE RIDGE     CLOUDY    79  42  26 S15       29.68F
WINNER         FAIR      75  32  20 SE21G33   29.78F
$$

SDZ004>011-016>023-039-040-222300-
NORTHEAST SOUTH DAKOTA

CITY           SKY/WX    TMP DP  RH WIND       PRES   REMARKS
ABERDEEN       PTSUNNY   66  31  27 SE18G25   29.93F
WATERTOWN      PTSUNNY   62  31  31 S13       29.96F
$$

SDZ017-020-022-023-036>040-048>070-222300-
SOUTHEAST SOUTH DAKOTA

CITY           SKY/WX    TMP DP  RH WIND       PRES   REMARKS
SIOUX FALLS    PTSUNNY   64  32  30 SE10G18   29.98F
HURON          CLOUDY    64  28  25 SE16G23   29.92F
CHAMBERLAIN      N/A     69  31  24 SE24G35   29.84F
MITCHELL       CLOUDY    67  29  24 SE24      29.93F
YANKTON        PTSUNNY   66  30  26 SE17G24   29.96F
$$

ABBREVIATIONS USED IN REMARKS
   TC - TEMPERATURE IN CELSIUS
  WCI - WIND CHILL INDEX
   HX - HEAT INDEX
  VSB - VISIBILITY




USA.gov is the U.S. government's official web portal to all federal, state and local government web resources and services.